Back to Top

Language: 

My Weather Underground Personal Weather Station Historical Data with Graphs...

Delerius Weather Station Historical Data
Daily Summary for May 30, 2017 Units:  English    Metric   Both
« Previous Day
Next Day »
Daily Weekly Monthly Yearly Custom
  High: Low: Average:
Temperature: 67.3 °F 51.6 °F 59.1 °F
Dew Point: 60.1 °F 48.8 °F 56 °F
Humidity: 98 % 67 % 90 %
Wind Speed: 19.0 mph 0.0 mph 4.9 mph
Wind Gust: 22.0 mph - -
Wind:- - West
Pressure: 30.08 in 29.82 in -
Precipitation: 0.05 in    
Historical Graphs
 
 
Tabular Data for May 30, 2017
Time Temperature Dew Point Pressure Wind Wind Speed Wind Gust Humidity Rainfall Rate (Hourly) solar Conditions
00:04 55.2 °F 54.4 °F 29.86 in Calm   4.0 mph 97 % 0.00 in 0 W/m2
00:09 55.2 °F 54.4 °F 29.86 in East 1.0 mph 4.0 mph 97 % 0.00 in 0 W/m2
00:14 55.0 °F 54.2 °F 29.86 in East 1.0 mph 4.0 mph 97 % 0.00 in 0 W/m2
00:19 55.0 °F 54.2 °F 29.86 in East 1.0 mph 4.0 mph 97 % 0.00 in 0 W/m2
00:24 55.0 °F 54.2 °F 29.85 in Calm   2.0 mph 97 % 0.00 in 0 W/m2
00:29 55.0 °F 54.2 °F 29.85 in Calm   2.0 mph 97 % 0.00 in 0 W/m2
00:34 55.2 °F 54.4 °F 29.85 in Calm     97 % 0.00 in 0 W/m2
00:40 55.2 °F 54.4 °F 29.85 in Calm   1.0 mph 97 % 0.00 in 0 W/m2
00:45 55.2 °F 54.4 °F 29.85 in Calm   1.0 mph 97 % 0.00 in 0 W/m2
00:50 55.2 °F 54.7 °F 29.85 in Calm   1.0 mph 98 % 0.00 in 0 W/m2
00:55 55.2 °F 54.7 °F 29.85 in Calm   1.0 mph 98 % 0.00 in 0 W/m2
01:00 55.2 °F 54.7 °F 29.85 in Calm   1.0 mph 98 % 0.00 in 0 W/m2
01:05 55.4 °F 54.8 °F 29.85 in Calm   1.0 mph 98 % 0.00 in 0 W/m2
01:10 55.4 °F 54.8 °F 29.84 in Calm   2.0 mph 98 % 0.00 in 0 W/m2
01:15 55.4 °F 54.8 °F 29.84 in Calm   2.0 mph 98 % 0.00 in 0 W/m2
01:20 55.6 °F 55.0 °F 29.84 in Calm   2.0 mph 98 % 0.00 in 0 W/m2
01:25 55.6 °F 55.0 °F 29.84 in Calm   2.0 mph 98 % 0.00 in 0 W/m2
01:30 55.6 °F 55.0 °F 29.84 in Calm   2.0 mph 98 % 0.00 in 0 W/m2
01:32 55.6 °F 55.0 °F 29.84 in Calm   2.0 mph 98 % 0.00 in 0 W/m2
01:37 55.6 °F 55.0 °F 29.84 in Calm     98 % 0.00 in 0 W/m2
01:42 55.6 °F 55.0 °F 29.84 in Calm     98 % 0.00 in 0 W/m2
01:47 55.6 °F 55.0 °F 29.84 in Calm     98 % 0.00 in 0 W/m2
01:52 55.6 °F 55.0 °F 29.84 in Calm     98 % 0.00 in 0 W/m2
01:57 55.6 °F 55.0 °F 29.83 in Calm     98 % 0.00 in 0 W/m2
02:02 55.6 °F 55.0 °F 29.83 in Calm   1.0 mph 98 % 0.00 in 0 W/m2
02:07 55.6 °F 55.0 °F 29.83 in Calm   1.0 mph 98 % 0.00 in 0 W/m2
02:12 55.6 °F 55.0 °F 29.83 in Calm     98 % 0.00 in 0 W/m2
02:17 55.6 °F 55.0 °F 29.83 in Calm     98 % 0.00 in 0 W/m2
02:22 55.6 °F 55.0 °F 29.83 in Calm     98 % 0.00 in 0 W/m2
02:28 55.8 °F 55.2 °F 29.83 in Calm     98 % 0.00 in 0 W/m2
02:33 55.8 °F 55.2 °F 29.83 in Calm     98 % 0.00 in 0 W/m2
02:38 55.8 °F 55.2 °F 29.83 in Calm     98 % 0.00 in 0 W/m2
02:43 55.8 °F 55.2 °F 29.82 in Calm     98 % 0.00 in 0 W/m2
02:48 55.8 °F 55.2 °F 29.82 in Calm     98 % 0.00 in 0 W/m2
02:53 55.8 °F 55.2 °F 29.82 in Calm     98 % 0.00 in 0 W/m2
02:58 55.8 °F 55.2 °F 29.82 in Calm     98 % 0.00 in 0 W/m2
03:03 55.8 °F 55.2 °F 29.83 in Calm     98 % 0.00 in 0 W/m2
03:08 55.9 °F 55.4 °F 29.83 in Calm     98 % 0.00 in 0 W/m2
03:13 55.9 °F 55.4 °F 29.83 in Calm     98 % 0.00 in 0 W/m2
03:18 55.9 °F 55.4 °F 29.83 in Calm     98 % 0.00 in 0 W/m2
03:23 55.9 °F 55.4 °F 29.83 in Calm     98 % 0.00 in 0 W/m2
03:28 55.9 °F 55.4 °F 29.83 in Calm     98 % 0.00 in 0 W/m2
03:33 55.9 °F 55.4 °F 29.83 in Calm     98 % 0.00 in 0 W/m2
03:38 55.9 °F 55.4 °F 29.83 in Calm     98 % 0.00 in 0 W/m2
03:43 55.9 °F 55.4 °F 29.83 in Calm     98 % 0.00 in 0 W/m2
03:48 55.9 °F 55.4 °F 29.83 in Calm     98 % 0.00 in 0 W/m2
03:53 55.9 °F 55.4 °F 29.83 in Calm     98 % 0.00 in 0 W/m2
03:58 55.9 °F 55.4 °F 29.83 in Calm     98 % 0.00 in 0 W/m2
04:03 55.9 °F 55.4 °F 29.83 in Calm     98 % 0.00 in 0 W/m2
04:08 55.9 °F 55.4 °F 29.83 in Calm     98 % 0.00 in 0 W/m2
04:13 55.9 °F 55.4 °F 29.83 in Calm     98 % 0.00 in 0 W/m2
04:18 55.9 °F 55.4 °F 29.83 in Calm     98 % 0.00 in 0 W/m2
04:23 55.9 °F 55.4 °F 29.83 in Calm     98 % 0.00 in 0 W/m2
04:28 55.9 °F 55.4 °F 29.83 in Calm   4.0 mph 98 % 0.00 in 0 W/m2
04:33 55.9 °F 55.4 °F 29.83 in Calm   4.0 mph 98 % 0.00 in 0 W/m2
04:38 55.9 °F 55.4 °F 29.83 in Calm   2.0 mph 98 % 0.00 in 0 W/m2
04:43 55.9 °F 55.4 °F 29.83 in Calm   2.0 mph 98 % 0.00 in 0 W/m2
04:48 56.1 °F 55.6 °F 29.83 in WNW 1.0 mph 5.0 mph 98 % 0.00 in 0 W/m2
04:54 56.1 °F 55.6 °F 29.83 in NW 2.0 mph 6.0 mph 98 % 0.00 in 0 W/m2
04:59 56.1 °F 55.6 °F 29.83 in NW 1.0 mph 6.0 mph 98 % 0.00 in 0 W/m2
05:04 56.1 °F 55.6 °F 29.84 in Calm   2.0 mph 98 % 0.00 in 0 W/m2
05:09 56.1 °F 55.6 °F 29.84 in Calm     98 % 0.00 in 0 W/m2
05:14 56.1 °F 55.6 °F 29.83 in Calm     98 % 0.00 in 5 W/m2
05:19 56.1 °F 55.6 °F 29.83 in Calm   1.0 mph 98 % 0.00 in 9 W/m2
05:24 56.3 °F 55.7 °F 29.84 in Calm   1.0 mph 98 % 0.00 in 7 W/m2
05:29 56.3 °F 55.7 °F 29.84 in Calm     98 % 0.00 in 14 W/m2
05:34 56.3 °F 55.7 °F 29.84 in Calm     98 % 0.00 in 9 W/m2
05:39 56.3 °F 55.7 °F 29.84 in Calm     98 % 0.00 in 9 W/m2
05:44 56.5 °F 55.9 °F 29.84 in Calm     98 % 0.00 in 11 W/m2
05:49 56.5 °F 55.9 °F 29.84 in Calm     98 % 0.00 in 12 W/m2
05:54 56.5 °F 55.9 °F 29.84 in Calm     98 % 0.00 in 23 W/m2
05:59 56.7 °F 56.1 °F 29.84 in Calm     98 % 0.00 in 26 W/m2
06:04 56.7 °F 56.1 °F 29.84 in Calm     98 % 0.00 in 33 W/m2
06:09 56.7 °F 56.1 °F 29.84 in Calm   4.0 mph 98 % 0.00 in 44 W/m2
06:14 56.7 °F 56.1 °F 29.83 in NW 1.0 mph 4.0 mph 98 % 0.00 in 58 W/m2
06:19 56.8 °F 56.3 °F 29.84 in WNW 1.0 mph 4.0 mph 98 % 0.00 in 46 W/m2
06:24 56.8 °F 56.3 °F 29.84 in Calm   4.0 mph 98 % 0.00 in 39 W/m2
06:29 56.8 °F 56.3 °F 29.84 in Calm     98 % 0.00 in 40 W/m2
06:34 56.8 °F 56.3 °F 29.84 in Calm   1.0 mph 98 % 0.00 in 46 W/m2
06:39 57.0 °F 56.5 °F 29.84 in Calm   1.0 mph 98 % 0.00 in 56 W/m2
06:44 57.0 °F 56.5 °F 29.84 in Calm     98 % 0.00 in 60 W/m2
06:49 57.0 °F 56.5 °F 29.84 in Calm     98 % 0.00 in 49 W/m2
06:54 57.0 °F 56.5 °F 29.84 in Calm   2.0 mph 98 % 0.00 in 53 W/m2
06:59 57.0 °F 56.5 °F 29.84 in South 1.0 mph 5.0 mph 98 % 0.00 in 56 W/m2
07:04 57.0 °F 56.5 °F 29.84 in SW 3.0 mph 8.0 mph 98 % 0.00 in 69 W/m2
07:09 57.0 °F 56.5 °F 29.84 in WSW 3.0 mph 8.0 mph 98 % 0.00 in 77 W/m2
07:15 57.2 °F 56.6 °F 29.85 in West 1.0 mph 5.0 mph 98 % 0.00 in 79 W/m2
07:20 57.4 °F 56.8 °F 29.85 in West 1.0 mph 7.0 mph 98 % 0.00 in 111 W/m2
07:25 57.4 °F 56.8 °F 29.85 in West 2.0 mph 8.0 mph 98 % 0.00 in 127 W/m2
07:30 57.6 °F 57.0 °F 29.85 in West 3.0 mph 8.0 mph 98 % 0.00 in 128 W/m2
07:35 57.6 °F 57.0 °F 29.85 in West 3.0 mph 7.0 mph 98 % 0.00 in 128 W/m2
07:40 57.7 °F 57.2 °F 29.85 in West 4.0 mph 11.0 mph 98 % 0.00 in 135 W/m2
07:45 57.9 °F 57.4 °F 29.85 in West 4.0 mph 11.0 mph 98 % 0.00 in 127 W/m2
07:50 57.9 °F 57.4 °F 29.85 in West 5.0 mph 8.0 mph 98 % 0.00 in 111 W/m2
07:55 58.3 °F 57.7 °F 29.85 in West 5.0 mph 8.0 mph 98 % 0.00 in 98 W/m2
08:00 58.1 °F 57.3 °F 29.86 in West 4.0 mph 9.0 mph 97 % 0.00 in 104 W/m2
08:05 58.3 °F 57.4 °F 29.86 in West 4.0 mph 9.0 mph 97 % 0.00 in 123 W/m2
08:10 58.3 °F 57.4 °F 29.86 in West 5.0 mph 8.0 mph 97 % 0.00 in 137 W/m2
08:15 58.3 °F 57.4 °F 29.86 in WSW 6.0 mph 9.0 mph 97 % 0.00 in 132 W/m2
08:20 58.3 °F 57.4 °F 29.86 in West 6.0 mph 10.0 mph 97 % 0.00 in 125 W/m2
08:25 58.3 °F 57.4 °F 29.86 in West 5.0 mph 10.0 mph 97 % 0.00 in 54 W/m2
08:30 58.3 °F 57.1 °F 29.86 in West 5.0 mph 13.0 mph 96 % 0.00 in 69 W/m2
08:35 58.1 °F 57.0 °F 29.86 in West 6.0 mph 13.0 mph 96 % 0.00 in 70 W/m2
08:40 58.1 °F 57.0 °F 29.87 in West 5.0 mph 9.0 mph 96 % 0.00 in 70 W/m2
08:45 58.3 °F 57.1 °F 29.87 in West 5.0 mph 8.0 mph 96 % 0.00 in 72 W/m2
08:50 58.3 °F 57.1 °F 29.87 in WNW 3.0 mph 7.0 mph 96 % 0.00 in 107 W/m2
08:55 58.3 °F 56.9 °F 29.87 in West 4.0 mph 9.0 mph 95 % 0.00 in 114 W/m2
09:00 58.5 °F 57.0 °F 29.87 in West 5.0 mph 9.0 mph 95 % 0.00 in 148 W/m2
09:05 58.5 °F 57.0 °F 29.87 in West 4.0 mph 9.0 mph 95 % 0.00 in 74 W/m2
09:10 58.6 °F 57.2 °F 29.87 in West 5.0 mph 8.0 mph 95 % 0.00 in 123 W/m2
09:15 58.6 °F 57.2 °F 29.87 in West 5.0 mph 9.0 mph 95 % 0.00 in 104 W/m2
09:20 58.5 °F 56.7 °F 29.87 in WSW 5.0 mph 9.0 mph 94 % 0.00 in 134 W/m2
09:25 58.6 °F 56.9 °F 29.87 in WSW 5.0 mph 10.0 mph 94 % 0.00 in 186 W/m2
09:30 58.8 °F 57.1 °F 29.87 in WSW 6.0 mph 10.0 mph 94 % 0.00 in 221 W/m2
09:35 59.0 °F 57.3 °F 29.87 in West 5.0 mph 8.0 mph 94 % 0.00 in 311 W/m2
09:40 59.4 °F 57.6 °F 29.87 in WSW 5.0 mph 10.0 mph 94 % 0.00 in 345 W/m2
09:45 59.7 °F 58.0 °F 29.88 in West 5.0 mph 10.0 mph 94 % 0.00 in 258 W/m2
09:50 59.9 °F 57.6 °F 29.88 in West 6.0 mph 11.0 mph 92 % 0.00 in 260 W/m2
09:55 60.1 °F 57.4 °F 29.88 in West 8.0 mph 14.0 mph 91 % 0.00 in 239 W/m2
10:00 60.3 °F 57.0 °F 29.88 in West 8.0 mph 14.0 mph 89 % 0.00 in 246 W/m2
10:05 60.4 °F 57.2 °F 29.88 in West 8.0 mph 13.0 mph 89 % 0.00 in 230 W/m2
10:10 60.4 °F 56.9 °F 29.88 in West 8.0 mph 13.0 mph 88 % 0.00 in 265 W/m2
10:15 60.6 °F 57.0 °F 29.88 in West 8.0 mph 13.0 mph 88 % 0.00 in 250 W/m2
10:20 60.8 °F 57.2 °F 29.88 in West 7.0 mph 12.0 mph 88 % 0.00 in 192 W/m2
10:25 61.0 °F 57.1 °F 29.89 in West 7.0 mph 13.0 mph 87 % 0.00 in 202 W/m2
10:30 61.0 °F 57.4 °F 29.89 in West 8.0 mph 13.0 mph 88 % 0.00 in 220 W/m2
10:35 60.8 °F 57.5 °F 29.89 in West 6.0 mph 11.0 mph 89 % 0.00 in 227 W/m2
10:40 60.8 °F 57.8 °F 29.89 in WSW 6.0 mph 10.0 mph 90 % 0.00 in 297 W/m2
10:45 60.6 °F 57.7 °F 29.89 in West 6.0 mph 11.0 mph 90 % 0.00 in 302 W/m2
10:50 60.6 °F 57.7 °F 29.89 in West 6.0 mph 11.0 mph 90 % 0.00 in 251 W/m2
10:51 60.6 °F 57.4 °F 29.89 in WSW 6.0 mph 12.0 mph 89 % 0.00 in 250 W/m2
10:57 60.4 °F 57.2 °F 29.89 in WSW 6.0 mph 12.0 mph 89 % 0.00 in 186 W/m2
11:02 60.4 °F 57.5 °F 29.89 in WSW 7.0 mph 13.0 mph 90 % 0.00 in 190 W/m2
11:07 60.3 °F 57.6 °F 29.89 in West 7.0 mph 13.0 mph 91 % 0.01 in 239 W/m2
11:12 60.3 °F 57.9 °F 29.89 in West 6.0 mph 10.0 mph 92 % 0.01 in 323 W/m2
11:17 60.3 °F 57.9 °F 29.89 in West 5.0 mph 9.0 mph 92 % 0.01 in 438 W/m2
11:22 60.4 °F 58.4 °F 29.89 in West 5.0 mph 9.0 mph 93 % 0.01 in 503 W/m2
11:27 61.0 °F 58.9 °F 29.89 in West 6.0 mph 11.0 mph 93 % 0.01 in 492 W/m2
11:32 61.9 °F 60.1 °F 29.89 in West 7.0 mph 11.0 mph 94 % 0.01 in 810 W/m2
11:37 62.4 °F 59.4 °F 29.89 in WNW 7.0 mph 12.0 mph 90 % 0.01 in 306 W/m2
11:42 62.8 °F 59.2 °F 29.89 in WNW 7.0 mph 12.0 mph 88 % 0.01 in 193 W/m2
11:47 63.0 °F 58.7 °F 29.89 in West 6.0 mph 13.0 mph 86 % 0.01 in 163 W/m2
11:52 62.8 °F 58.5 °F 29.89 in West 7.0 mph 15.0 mph 86 % 0.01 in 216 W/m2
11:57 62.6 °F 57.7 °F 29.90 in West 8.0 mph 15.0 mph 84 % 0.01 in 415 W/m2
12:02 62.6 °F 57.7 °F 29.90 in West 9.0 mph 15.0 mph 84 % 0.01 in 536 W/m2
12:07 62.8 °F 57.5 °F 29.90 in West 10.0 mph 19.0 mph 83 % 0.00 in 448 W/m2
12:12 63.0 °F 57.4 °F 29.90 in West 11.0 mph 19.0 mph 82 % 0.00 in 529 W/m2
12:17 63.3 °F 57.4 °F 29.90 in West 9.0 mph 19.0 mph 81 % 0.00 in 540 W/m2
12:22 63.7 °F 58.1 °F 29.89 in West 7.0 mph 13.0 mph 82 % 0.00 in 452 W/m2
12:27 64.0 °F 57.7 °F 29.89 in West 8.0 mph 12.0 mph 80 % 0.00 in 383 W/m2
12:32 64.2 °F 57.9 °F 29.89 in West 8.0 mph 12.0 mph 80 % 0.00 in 390 W/m2
12:37 64.4 °F 58.1 °F 29.89 in West 8.0 mph 14.0 mph 80 % 0.00 in 566 W/m2
12:42 64.4 °F 57.4 °F 29.89 in West 10.0 mph 18.0 mph 78 % 0.00 in 526 W/m2
12:47 64.2 °F 57.2 °F 29.89 in WSW 11.0 mph 18.0 mph 78 % 0.00 in 563 W/m2
12:52 64.4 °F 57.7 °F 29.89 in West 10.0 mph 15.0 mph 79 % 0.00 in 429 W/m2
12:57 64.6 °F 57.6 °F 29.90 in West 9.0 mph 14.0 mph 78 % 0.00 in 357 W/m2
13:02 64.6 °F 57.6 °F 29.90 in West 9.0 mph 14.0 mph 78 % 0.00 in 179 W/m2
13:07 64.2 °F 56.9 °F 29.90 in West 9.0 mph 16.0 mph 77 % 0.00 in 206 W/m2
13:12 64.0 °F 56.7 °F 29.90 in West 9.0 mph 16.0 mph 77 % 0.00 in 176 W/m2
13:17 63.7 °F 56.3 °F 29.90 in West 8.0 mph 14.0 mph 77 % 0.00 in 137 W/m2
13:22 63.3 °F 56.7 °F 29.90 in West 7.0 mph 14.0 mph 79 % 0.00 in 297 W/m2
13:27 63.3 °F 57.0 °F 29.90 in West 6.0 mph 11.0 mph 80 % 0.00 in 292 W/m2
13:32 63.7 °F 57.4 °F 29.90 in West 7.0 mph 11.0 mph 80 % 0.00 in 288 W/m2
13:37 63.9 °F 57.6 °F 29.89 in WNW 6.0 mph 11.0 mph 80 % 0.00 in 214 W/m2
13:42 63.9 °F 57.6 °F 29.90 in WNW 6.0 mph 11.0 mph 80 % 0.00 in 148 W/m2
13:47 63.9 °F 57.2 °F 29.90 in WNW 7.0 mph 14.0 mph 79 % 0.00 in 114 W/m2
13:52 63.7 °F 57.0 °F 29.90 in WNW 8.0 mph 15.0 mph 79 % 0.00 in 84 W/m2
13:57 63.1 °F 57.6 °F 29.90 in WNW 10.0 mph 15.0 mph 82 % 0.00 in 109 W/m2
14:02 62.2 °F 57.0 °F 29.91 in West 10.0 mph 19.0 mph 83 % 0.00 in 149 W/m2
14:07 61.9 °F 57.3 °F 29.91 in WNW 8.0 mph 19.0 mph 85 % 0.00 in 221 W/m2
14:12 61.3 °F 56.8 °F 29.91 in WNW 8.0 mph 14.0 mph 85 % 0.00 in 137 W/m2
14:17 61.2 °F 56.6 °F 29.91 in West 8.0 mph 14.0 mph 85 % 0.00 in 207 W/m2
14:22 61.0 °F 56.8 °F 29.91 in West 7.0 mph 12.0 mph 86 % 0.00 in 276 W/m2
14:27 61.2 °F 56.6 °F 29.91 in West 6.0 mph 12.0 mph 85 % 0.00 in 230 W/m2
14:32 61.2 °F 56.3 °F 29.91 in West 7.0 mph 15.0 mph 84 % 0.00 in 202 W/m2
14:37 61.2 °F 56.0 °F 29.91 in West 7.0 mph 15.0 mph 83 % 0.00 in 137 W/m2
14:42 61.2 °F 55.6 °F 29.91 in West 8.0 mph 14.0 mph 82 % 0.00 in 104 W/m2
14:47 61.0 °F 55.4 °F 29.91 in West 9.0 mph 15.0 mph 82 % 0.00 in 125 W/m2
14:52 61.0 °F 55.4 °F 29.91 in West 9.0 mph 15.0 mph 82 % 0.00 in 178 W/m2
14:54 61.0 °F 55.4 °F 29.91 in West 9.0 mph 15.0 mph 82 % 0.00 in 190 W/m2
14:58 61.2 °F 55.6 °F 29.91 in West 8.0 mph 12.0 mph 82 % 0.00 in 202 W/m2
15:03 61.3 °F 56.1 °F 29.91 in West 8.0 mph 13.0 mph 83 % 0.00 in 241 W/m2
15:08 61.5 °F 56.3 °F 29.91 in West 7.0 mph 13.0 mph 83 % 0.00 in 204 W/m2
15:13 62.1 °F 56.5 °F 29.91 in WSW 7.0 mph 14.0 mph 82 % 0.00 in 255 W/m2
15:18 62.4 °F 56.5 °F 29.91 in West 9.0 mph 16.0 mph 81 % 0.00 in 294 W/m2
15:23 62.8 °F 56.5 °F 29.91 in West 10.0 mph 16.0 mph 80 % 0.00 in 250 W/m2
15:28 63.0 °F 56.7 °F 29.91 in West 10.0 mph 19.0 mph 80 % 0.00 in 163 W/m2
15:33 63.0 °F 56.7 °F 29.91 in WSW 10.0 mph 20.0 mph 80 % 0.00 in 120 W/m2
15:38 62.8 °F 56.2 °F 29.91 in WSW 10.0 mph 20.0 mph 79 % 0.00 in 188 W/m2
15:43 62.6 °F 56.3 °F 29.91 in West 10.0 mph 15.0 mph 80 % 0.00 in 232 W/m2
15:48 62.8 °F 56.5 °F 29.91 in West 10.0 mph 16.0 mph 80 % 0.00 in 278 W/m2
15:53 63.1 °F 56.5 °F 29.91 in WSW 9.0 mph 16.0 mph 79 % 0.00 in 294 W/m2
15:58 63.7 °F 57.0 °F 29.91 in WSW 8.0 mph 16.0 mph 79 % 0.00 in 276 W/m2
16:03 63.9 °F 56.5 °F 29.91 in West 9.0 mph 18.0 mph 77 % 0.00 in 267 W/m2
16:08 64.0 °F 56.7 °F 29.92 in West 10.0 mph 18.0 mph 77 % 0.00 in 320 W/m2
16:13 64.4 °F 56.7 °F 29.92 in West 10.0 mph 16.0 mph 76 % 0.00 in 278 W/m2
16:18 64.6 °F 56.8 °F 29.92 in West 11.0 mph 21.0 mph 76 % 0.00 in 323 W/m2
16:23 65.1 °F 57.7 °F 29.92 in West 11.0 mph 21.0 mph 77 % 0.00 in 513 W/m2
16:28 66.0 °F 57.5 °F 29.92 in West 11.0 mph 21.0 mph 74 % 0.00 in 387 W/m2
16:30 66.0 °F 57.1 °F 29.92 in West 12.0 mph 22.0 mph 73 % 0.00 in 462 W/m2
16:35 66.6 °F 57.3 °F 29.92 in West 12.0 mph 22.0 mph 72 % 0.00 in 520 W/m2
16:40 66.9 °F 57.6 °F 29.92 in West 10.0 mph 22.0 mph 72 % 0.00 in 858 W/m2
16:45 67.3 °F 56.4 °F 29.92 in West 10.0 mph 22.0 mph 68 % 0.00 in 765 W/m2
16:50 67.3 °F 55.9 °F 29.92 in West 10.0 mph 22.0 mph 67 % 0.00 in 213 W/m2
16:55 66.9 °F 56.0 °F 29.92 in West 10.0 mph 20.0 mph 68 % 0.00 in 213 W/m2
17:00 66.9 °F 56.8 °F 29.92 in West 10.0 mph 20.0 mph 70 % 0.00 in 302 W/m2
17:05 66.9 °F 56.0 °F 29.93 in West 10.0 mph 20.0 mph 68 % 0.00 in 721 W/m2
17:10 66.7 °F 55.8 °F 29.93 in West 11.0 mph 20.0 mph 68 % 0.00 in 172 W/m2
17:15 66.0 °F 55.2 °F 29.93 in West 12.0 mph 19.0 mph 68 % 0.00 in 179 W/m2
17:20 65.7 °F 55.6 °F 29.93 in West 12.0 mph 18.0 mph 70 % 0.00 in 202 W/m2
17:25 65.5 °F 56.2 °F 29.93 in West 10.0 mph 18.0 mph 72 % 0.00 in 158 W/m2
17:30 65.1 °F 55.9 °F 29.94 in West 10.0 mph 20.0 mph 72 % 0.00 in 109 W/m2
17:36 64.9 °F 55.7 °F 29.94 in West 11.0 mph 21.0 mph 72 % 0.00 in 104 W/m2
17:40 64.6 °F 55.7 °F 29.94 in West 11.0 mph 21.0 mph 73 % 0.00 in 123 W/m2
17:45 64.6 °F 56.1 °F 29.94 in West 9.0 mph 15.0 mph 74 % 0.00 in 116 W/m2
18:15 64.0 °F 57.7 °F 29.94 in WNW 12.0 mph 12.0 mph 80 % 0.00 in 60 W/m2
18:30 63.4 °F 57.8 °F 29.94 in WNW 7.0 mph 7.0 mph 82 % 0.00 in 49 W/m2
18:45 62.7 °F 58.1 °F 29.96 in WNW 19.0 mph 19.0 mph 85 % 0.04 in 36 W/m2
19:00 61.1 °F 57.8 °F 29.96 in West 9.0 mph 9.0 mph 89 % 0.04 in 101 W/m2
19:15 60.8 °F 57.8 °F 29.97 in WNW 14.0 mph 14.0 mph 90 % 0.04 in 298 W/m2
19:30 60.8 °F 57.2 °F 29.97 in WNW 15.0 mph 15.0 mph 88 % 0.04 in 115 W/m2
19:45 60.5 °F 56.9 °F 29.97 in WNW 13.0 mph 13.0 mph 88 % 0.00 in 112 W/m2
20:00 60.3 °F 56.7 °F 29.98 in WNW 16.0 mph 16.0 mph 88 % 0.00 in 76 W/m2
20:15 60.2 °F 56.6 °F 29.98 in WNW 14.0 mph 14.0 mph 88 % 0.00 in 50 W/m2
20:30 60.0 °F 56.4 °F 29.99 in WNW 11.0 mph 11.0 mph 88 % 0.00 in 22 W/m2
20:45 59.6 °F 56.4 °F 30.00 in WNW 10.0 mph 10.0 mph 89 % 0.00 in 15 W/m2
21:00 59.3 °F 56.4 °F 30.00 in WNW 11.0 mph 11.0 mph 90 % 0.00 in 10 W/m2
21:28 58.5 °F 56.1 °F 30.02 in WNW 7.0 mph 8.0 mph 92 % 0.00 in 0 W/m2
21:33 58.5 °F 56.1 °F 30.02 in WNW 7.0 mph 9.0 mph 92 % 0.00 in 0 W/m2
21:38 58.3 °F 56.0 °F 30.02 in WNW 6.0 mph 9.0 mph 92 % 0.00 in 0 W/m2
21:43 58.1 °F 55.8 °F 30.02 in WNW 7.0 mph 12.0 mph 92 % 0.00 in 0 W/m2
21:48 57.9 °F 55.6 °F 30.03 in WNW 7.0 mph 12.0 mph 92 % 0.00 in 0 W/m2
21:53 57.7 °F 55.4 °F 30.03 in WNW 8.0 mph 12.0 mph 92 % 0.00 in 0 W/m2
21:58 57.4 °F 55.1 °F 30.03 in WNW 8.0 mph 15.0 mph 92 % 0.00 in 0 W/m2
22:03 57.2 °F 54.9 °F 30.03 in WNW 8.0 mph 15.0 mph 92 % 0.00 in 0 W/m2
22:08 57.0 °F 54.7 °F 30.03 in WNW 7.0 mph 11.0 mph 92 % 0.00 in 0 W/m2
22:13 56.7 °F 54.4 °F 30.04 in WNW 6.0 mph 10.0 mph 92 % 0.00 in 0 W/m2
22:18 56.5 °F 54.2 °F 30.03 in WNW 7.0 mph 10.0 mph 92 % 0.00 in 0 W/m2
22:23 56.1 °F 53.8 °F 30.04 in WNW 7.0 mph 14.0 mph 92 % 0.00 in 0 W/m2
22:28 55.8 °F 53.2 °F 30.04 in WNW 8.0 mph 15.0 mph 91 % 0.00 in 0 W/m2
22:33 55.6 °F 52.7 °F 30.04 in WNW 7.0 mph 15.0 mph 90 % 0.00 in 0 W/m2
22:38 55.2 °F 52.3 °F 30.04 in WNW 5.0 mph 10.0 mph 90 % 0.00 in 0 W/m2
22:43 55.0 °F 52.2 °F 30.05 in West 4.0 mph 9.0 mph 90 % 0.00 in 0 W/m2
22:48 54.9 °F 52.0 °F 30.05 in WNW 2.0 mph 6.0 mph 90 % 0.00 in 0 W/m2
22:53 54.5 °F 51.6 °F 30.05 in WNW 3.0 mph 7.0 mph 90 % 0.00 in 0 W/m2
22:58 54.3 °F 51.4 °F 30.05 in West 3.0 mph 7.0 mph 90 % 0.00 in 0 W/m2
23:03 54.0 °F 51.1 °F 30.05 in WNW 3.0 mph 6.0 mph 90 % 0.00 in 0 W/m2
23:09 53.8 °F 50.9 °F 30.05 in WNW 2.0 mph 5.0 mph 90 % 0.00 in 0 W/m2
23:14 53.4 °F 50.6 °F 30.06 in WNW 1.0 mph 4.0 mph 90 % 0.00 in 0 W/m2
23:19 53.1 °F 50.2 °F 30.06 in Calm   4.0 mph 90 % 0.00 in 0 W/m2
23:24 52.9 °F 50.0 °F 30.07 in Calm   2.0 mph 90 % 0.00 in 0 W/m2
23:29 52.5 °F 49.4 °F 30.07 in NW 1.0 mph 5.0 mph 89 % 0.00 in 0 W/m2
23:39 52.3 °F 49.5 °F 30.08 in SW 1.0 mph 6.0 mph 90 % 0.00 in 0 W/m2
23:44 52.3 °F 49.5 °F 30.08 in South 1.0 mph 5.0 mph 90 % 0.00 in 0 W/m2
23:49 52.3 °F 49.5 °F 30.08 in South 2.0 mph 5.0 mph 90 % 0.00 in 0 W/m2
23:54 52.0 °F 48.8 °F 30.08 in WSW 2.0 mph 5.0 mph 89 % 0.00 in 0 W/m2
23:59 51.6 °F 48.8 °F 30.08 in WNW 3.0 mph 6.0 mph 90 % 0.00 in 0 W/m2
Delerius-Weather
Compliments of Weather Underground - 2.25 mb

Data updates at regular intervals.